Presure
93 95 137 173 165 177 190 164 174 193 177 174 168 183 186 188 167 205 161 207 169 156 169 203 202 203 159
106 137 174 189 101 135 176 155 190 162 166 164 174 188 195 168 165 186 182 193 173 169 207 177 159 201 204
150 165 191 179 184 156 154 151 180 203 160 167 183 161 179 189 145 186 151 199 150 161 162 152 183 162 207
95 188 172 181 170 172 189 176 187 170 155 194 187 187 194 176 150 175 172 168 184 210 193 197 206 205 206
185 181 148 173 160 178 176 173 160 201 196 196 203 192 188 153 170 158 162 173 190 196 151 173 200 196 214
170 174 185 169 177 150 176 160 180 183 175 189 193 193 171 184 177 184 157 153 199 179 184 195 194 199 208
173 158 188 151 173 167 184 179 181 194 179 193 171 173 186 170 173 183 167 173 174 190 186 201 195 203 229
164 171 170 158 185 193 166 177 189 177 193 175 188 167 188 154 175 173 178 194 187 196 192 187 203 191 230
175 157 155 163 172 174 170 209 167 185 190 176 160 197 196 161 161 169 194 168 186 184 191 198 195 209 224
139 178 165 164 179 164 162 131 159 188 182 142 193 183 174 183 195 179 179 186 195 186 201 193 199 216 232
173 176 167 179 174 175 178 145 193 169 193 183 157 166 178 177 171 171 185 196 192 194 199 197 214 238 219
173 189 176 169 190 169 175 185 184 151 179 141 167 161 186 171 193 187 193 179 190 196 183 209 226 232 240
191 188 178 186 178 177 185 183 177 174 189 159 183 161 179 187 183 184 171 192 196 196 205 220 235 232 244
166 176 177 159 184 175 177 175 172 161 158 180 179 174 196 175 193 179 187 174 200 208 211 210 238 242 242
167 183 175 163 185 183 165 151 167 157 184 186 185 184 177 196 176 190 194 200 204 194 221 225 235 227 286
159 161 168 165 172 183 169 162 168 172 177 167 169 179 182 189 183 190 198 196 201 206 217 217 246 283 309
182 181 169 184 173 177 189 171 163 171 193 170 184 173 183 183 193 187 194 197 208 205 232 223 242 307 305
Wind_Speed
63 71 64 54 57 50 47 55 55 43 44 51 54 57 52 61 71 83 80 85 80 82 90 102 105 117 95
70 67 57 48 86 78 51 60 49 52 48 56 57 64 64 67 74 68 73 77 84 88 116 88 94 121 124
66 58 49 58 53 53 56 64 57 58 56 64 62 68 56 62 67 76 80 91 81 92 94 81 108 98 136
59 53 63 59 59 59 54 58 57 55 65 67 66 68 73 66 77 83 81 86 93 119 101 115 132 133 135
57 60 39 60 53 58 59 56 56 69 65 74 79 75 76 82 67 85 89 80 104 111 83 93 127 122 147
64 67 63 63 66 51 60 60 65 66 51 77 81 82 59 83 68 86 88 79 119 86 96 128 125 134 144
69 56 66 44 65 62 74 75 70 75 59 80 53 66 86 68 78 96 84 83 98 112 108 138 135 140 150
66 71 68 65 72 68 60 77 82 68 83 54 79 59 92 80 81 82 91 118 108 127 123 116 145 112 149
71 58 60 61 72 77 66 79 56 83 85 58 61 100 104 79 79 94 119 85 116 107 123 136 134 151 149
53 82 65 65 74 58 63 67 54 87 82 75 98 96 76 104 113 99 96 119 130 119 142 131 140 152 150
84 79 75 80 81 73 78 78 93 67 97 89 66 66 93 94 84 90 117 131 131 138 146 140 154 151 141
86 81 77 69 87 61 79 91 82 71 91 77 81 71 111 88 120 122 130 106 132 143 95 156 155 150 149
86 84 85 92 88 89 85 91 82 69 103 65 104 79 108 121 118 117 87 139 144 144 151 155 147 146 144
79 86 88 57 91 78 83 71 69 55 63 101 101 94 120 102 129 113 132 87 150 152 152 142 150 147 143
76 88 88 66 96 98 86 69 74 64 110 112 120 118 107 129 104 133 140 146 150 133 153 151 146 138 132
57 73 61 63 85 99 67 71 80 84 99 83 87 113 120 129 122 133 139 140 139 145 143 147 153 133 103
89 91 78 97 90 97 105 87 68 93 118 91 122 102 126 124 135 129 137 137 144 135 148 145 154 105 99
Wind_Direction
289 290 289 292 290 301 300 303 305 312 310 313 306 317 308 325 305 342 304 346 313 313 307 336 343 341 322
287 285 290 287 292 295 299 303 309 306 312 311 315 321 333 300 323 336 329 337 334 309 344 314 321 340 341
282 282 284 290 292 301 295 295 309 310 302 309 317 303 312 333 316 333 312 344 311 311 310 318 326 316 339
284 283 287 289 298 300 303 312 311 306 300 318 328 329 336 315 310 322 330 323 335 345 340 343 341 340 338
280 285 295 295 296 300 307 313 306 314 315 322 326 334 336 304 308 303 317 314 339 343 319 315 340 338 336
283 284 287 303 300 294 306 308 313 318 317 329 330 334 325 338 322 337 311 322 341 316 332 338 338 338 336
282 298 287 297 304 304 306 312 313 314 308 330 309 322 337 314 320 337 312 316 330 341 335 337 335 335 336
294 289 293 292 297 302 310 312 313 320 326 319 327 300 334 305 329 327 331 339 339 338 337 334 335 334 336
284 285 285 306 307 305 307 310 310 327 317 329 293 326 328 299 306 325 335 314 336 336 335 333 334 333 334
275 290 302 305 304 301 301 298 288 321 329 296 326 330 329 331 327 331 331 334 332 333 331 333 332 331 334
288 292 284 298 302 303 313 288 315 317 322 326 302 308 331 323 320 317 333 331 332 332 331 331 330 334 333
292 289 298 303 303 298 318 316 317 288 306 297 321 303 327 320 326 330 329 328 331 331 329 329 330 332 333
282 290 297 300 298 307 306 316 315 319 318 300 324 303 327 327 328 328 322 327 326 329 328 329 331 332 334
294 294 294 298 300 305 312 314 310 305 296 324 324 324 321 328 323 326 326 323 325 326 326 327 331 332 332
294 288 299 298 301 305 306 302 307 295 316 314 317 321 326 320 325 323 324 323 324 325 326 328 330 329 332
280 290 299 300 308 306 308 295 310 322 316 317 320 321 321 319 322 322 322 324 323 323 325 327 330 330 330
289 291 297 299 307 306 302 315 316 313 308 320 313 322 316 319 317 321 323 322 322 324 326 327 328 327 329